Weather in Andeg

Russia / Nenets Autonomous Okrug     67°53′25″N   53°12′55″E
temp.,
°C
wind,
m/s
gust,
m/s
humid.,
%
clouds,
%
prec.,
mm/h
press.,
hPa
HPBL,
m
12 august, fri
fri1200:00+14sw81495100 2.1 1001773
03:00+12wnw599324 3.6 1001426
06:00+12wnw59852 0.0 1002409
09:00+16w56625 0.0 1002884
12:00+17w575777 0.2 10011219
15:00+13wnw6118181 1.9 1003566
18:00+12wnw712738 0.1 10031157
21:00+10w71380100 0.1 1004855
13 august, sat
sat1300:00+10w81384100 0.1 10031002
03:00+9w81485100 0.4 1004876
06:00+10w91589100 0.3 1003941
09:00+10w91389100 0.7 10031100
12:00+10w101585100 0.4 10041404
15:00+9wnw101589100 1.4 10061060
18:00+9nw101586100 0.2 10081123
21:00+8nw81484100 0.3 1010834
14 august, sun
sun1400:00+7wnw7138963 0.1 1012502
03:00+7nw71279100 0.1 1013795
06:00+8nw71175100 0.0 10141173
09:00+9nw81168100 0.1 10161366
12:00+11nw71064100 0.1 10171393
15:00+12nw71157100 0.3 10181652
18:00+11wnw3667100 0.1 1018375
21:00+8w368279 0.1 1018112
15 august, mon
mon1500:00+9wsw3577100 0.0 1017104
03:00+9sw4874100 0.0 1017194
06:00+10sw4971100 0.0 1016327
09:00+13w687499 0.3 1015952
12:00+15wnw8957100 0.3 10151454
15:00+13wnw8962100 0.4 10171412
18:00+12nw610758 0.3 1017903
21:00+8wnw7138956 0.4 1019388
16 august, tue
tue1600:00+9nw81279100 0.0 1020669
03:00+10nw71073100 0.0 1022866
06:00+10nw6872100 0.0 10231015
09:00+11nw7866100 0.0 1024992
12:00+13nw675590 0.0 10241065
15:00+10wnw3474100 0.1 1025429
18:00+10s3377100 0.1 1024241
21:00+9s3686100 0.2 1022159